Location: Oshawa
(43.9000°N, 78.8670°W)
Time: 17:26:55
(UTC-04:00)

Thor Agena Rocket - Visible Passes

Search period start: 03 September 2015 00:00
Search period end: 13 September 2015 00:00
Orbit: 761 x 808 km, 99.1° (Epoch: 02 September)

Date Brightness Start Highest point End Pass type
(mag) Time Alt. Az. Time Alt. Az. Time Alt. Az.
03 Sep 6.3 01:59:18 10° ENE 02:01:00 12° ENE 02:03:10 10° NNE visible
03 Sep 3.7 03:39:55 74° NNE 03:39:55 74° NNE 03:44:51 10° NNW visible
03 Sep 5.4 05:20:32 13° WNW 05:20:32 13° WNW 05:22:07 10° WNW visible
04 Sep 4.6 03:08:31 42° ENE 03:08:32 42° ENE 03:13:31 10° N visible
04 Sep 4.8 04:49:08 25° WNW 04:49:08 25° WNW 04:52:26 10° NW visible
05 Sep 5.5 02:37:07 23° ENE 02:37:40 24° ENE 02:41:52 10° N visible
05 Sep 4.1 04:17:45 44° WNW 04:17:45 44° WNW 04:21:51 10° NNW visible
06 Sep 6.2 02:05:44 13° ENE 02:06:55 14° ENE 02:09:34 10° NNE visible
06 Sep 3.8 03:46:21 65° N 03:46:21 65° N 03:50:52 10° NNW visible
06 Sep 5.5 05:26:58 11° WNW 05:26:58 11° WNW 05:27:40 10° WNW visible
07 Sep 4.5 03:14:58 46° NE 03:14:58 46° NE 03:19:36 10° N visible
07 Sep 5.0 04:55:35 21° WNW 04:55:35 21° WNW 04:58:18 10° NW visible
08 Sep 5.4 02:43:35 26° ENE 02:43:38 26° ENE 02:48:00 10° N visible
08 Sep 4.4 04:24:12 36° WNW 04:24:12 36° WNW 04:27:48 10° NNW visible
09 Sep 6.1 02:12:12 15° ENE 02:12:52 15° ENE 02:15:53 10° NNE visible
09 Sep 4.0 03:52:49 54° NNW 03:52:49 54° NNW 03:56:53 10° NNW visible
10 Sep 4.5 03:21:26 46° NE 03:21:26 46° NE 03:25:39 10° N visible
10 Sep 5.2 05:02:03 18° WNW 05:02:03 18° WNW 05:04:08 10° NW visible
11 Sep 5.3 02:50:03 28° NE 02:50:03 28° NE 02:54:07 10° N visible
11 Sep 4.7 04:30:40 30° NW 04:30:40 30° NW 04:33:45 10° NNW visible
12 Sep 6.0 02:18:41 17° ENE 02:18:48 17° ENE 02:22:08 10° NNE visible
12 Sep 4.3 03:59:18 44° NNW 03:59:18 44° NNW 04:02:53 10° NNW visible
